| time (UTC) | temp F | wind direction | speed MPH | gust MPH | rain 1hr in | rain 24hr in | rain mn in | humidity % | barometer mb |
| 20260502202015 | 64 | 95 | 3.0 | 7.0 | 0.00 | 0.00 | 0.00 | 40 | 1022.9 |
| 20260502201549 | 64 | 70 | 3.0 | 6.0 | 0.00 | 0.00 | 0.00 | 41 | 1022.9 |
| 20260502201015 | 63 | 44 | 2.0 | 6.0 | 0.00 | 0.00 | 0.00 | 42 | 1023.1 |
| 20260502200520 | 63 | 34 | 2.0 | 5.0 | 0.00 | 0.00 | 0.00 | 40 | 1023.0 |
| 20260502200043 | 63 | 63 | 2.0 | 7.0 | 0.00 | 0.00 | 0.00 | 39 | 1023.1 |
| 20260502195518 | 63 | 30 | 3.0 | 7.0 | 0.00 | 0.00 | 0.00 | 41 | 1023.0 |
| 20260502195018 | 63 | 78 | 3.0 | 6.0 | 0.00 | 0.00 | 0.00 | 44 | 1023.1 |
| 20260502194546 | 62 | 115 | 3.0 | 8.0 | 0.00 | 0.00 | 0.00 | 40 | 1023.1 |
| 20260502194021 | 62 | 101 | 3.0 | 8.0 | 0.00 | 0.00 | 0.00 | 40 | 1023.1 |
| 20260502193528 | 63 | 99 | 3.0 | 9.0 | 0.00 | 0.00 | 0.00 | 42 | 1023.0 |
| 20260502193109 | 64 | 95 | 5.0 | 10.0 | 0.00 | 0.00 | 0.00 | 39 | 1023.1 |
| 20260502192516 | 65 | 106 | 5.0 | 10.0 | 0.00 | 0.00 | 0.00 | 39 | 1023.1 |
| 20260502192016 | 65 | 87 | 4.0 | 10.0 | 0.00 | 0.00 | 0.00 | 40 | 1023.2 |
| 20260502191605 | 65 | 94 | 4.0 | 8.0 | 0.00 | 0.00 | 0.00 | 40 | 1023.1 |
| 20260502191020 | 64 | 94 | 4.0 | 8.0 | 0.00 | 0.00 | 0.00 | 39 | 1023.1 |
| 20260502190519 | 64 | 105 | 4.0 | 10.0 | 0.00 | 0.00 | 0.00 | 39 | 1023.0 |
| 20260502190111 | 65 | 86 | 5.0 | 10.0 | 0.00 | 0.00 | 0.00 | 39 | 1023.0 |
| 20260502185517 | 65 | 72 | 4.0 | 10.0 | 0.00 | 0.00 | 0.00 | 40 | 1023.0 |
| 20260502185018 | 65 | 85 | 3.0 | 10.0 | 0.00 | 0.00 | 0.00 | 42 | 1023.1 |
| 20260502184609 | 64 | 94 | 4.0 | 10.0 | 0.00 | 0.00 | 0.00 | 41 | 1023.0 |
| 20260502184017 | 63 | 63 | 3.0 | 8.0 | 0.00 | 0.00 | 0.00 | 42 | 1023.1 |
| 20260502183519 | 63 | 42 | 3.0 | 8.0 | 0.00 | 0.00 | 0.00 | 40 | 1023.1 |
| 20260502183112 | 62 | 110 | 2.0 | 10.0 | 0.00 | 0.00 | 0.00 | 43 | 1023.0 |
| 20260502182516 | 62 | 9 | 4.0 | 10.0 | 0.00 | 0.00 | 0.00 | 43 | 1023.0 |
| 20260502182017 | 62 | 347 | 1.0 | 5.0 | 0.00 | 0.00 | 0.00 | 40 | 1022.9 |
| 20260502181558 | 62 | 76 | 1.0 | 5.0 | 0.00 | 0.00 | 0.00 | 39 | 1022.9 |
| 20260502181018 | 63 | 262 | 1.0 | 8.0 | 0.00 | 0.00 | 0.00 | 39 | 1022.8 |
| 20260502180528 | 64 | 333 | 3.0 | 8.0 | 0.00 | 0.00 | 0.00 | 38 | 1022.9 |
| 20260502180113 | 63 | 317 | 2.0 | 8.0 | 0.00 | 0.00 | 0.00 | 39 | 1022.9 |
| 20260502164024 | 58 | 292 | 2.0 | 4.0 | 0.00 | 0.00 | 0.00 | 44 | 1022.5 |
| 20260502163526 | 58 | 207 | 1.0 | 4.0 | 0.00 | 0.00 | 0.00 | 44 | 1022.6 |
| 20260502163112 | 58 | 238 | 1.0 | 4.0 | 0.00 | 0.00 | 0.00 | 45 | 1022.6 |
| 20260502162524 | 59 | 208 | 0.0 | 5.0 | 0.00 | 0.00 | 0.00 | 45 | 1022.6 |
| 20260502162026 | 59 | 213 | 2.0 | 6.0 | 0.00 | 0.00 | 0.00 | 45 | 1022.6 |
| 20260502161625 | 59 | 211 | 1.0 | 7.0 | 0.00 | 0.00 | 0.00 | 48 | 1022.6 |
| 20260502161025 | 57 | 127 | 1.0 | 4.0 | 0.00 | 0.00 | 0.00 | 44 | 1022.4 |
| 20260502160527 | 56 | 242 | 1.0 | 4.0 | 0.00 | 0.00 | 0.00 | 47 | 1022.4 |
| 20260502152016 | 53 | 222 | 2.0 | 4.0 | 0.00 | 0.00 | 0.00 | 52 | 1022.2 |
| 20260502151544 | 53 | 239 | 1.0 | 3.0 | 0.00 | 0.00 | 0.00 | 52 | 1022.3 |
| 20260502151012 | 53 | 222 | 1.0 | 3.0 | 0.00 | 0.00 | 0.00 | 52 | 1022.2 |
| 20260502150515 | 53 | 221 | 1.0 | 4.0 | 0.00 | 0.00 | 0.00 | 52 | 1022.2 |
| 20260502130514 | 52 | 311 | 1.0 | 3.0 | 0.00 | 0.00 | 0.00 | 51 | 1021.7 |
| 20260502123517 | 50 | 281 | 2.0 | 4.0 | 0.00 | 0.00 | 0.00 | 55 | 1021.7 |
| 20260502123037 | 49 | 298 | 2.0 | 5.0 | 0.00 | 0.00 | 0.00 | 56 | 1021.7 |
| 20260502122514 | 49 | 272 | 2.0 | 5.0 | 0.00 | 0.00 | 0.00 | 56 | 1021.7 |
| 20260502122015 | 50 | 245 | 3.0 | 5.0 | 0.00 | 0.00 | 0.00 | 58 | 1021.8 |
| 20260502121549 | 52 | 183 | 0.0 | 4.0 | 0.00 | 0.00 | 0.00 | 53 | 1021.7 |
| 20260502121014 | 52 | 51 | 1.0 | 4.0 | 0.00 | 0.00 | 0.00 | 51 | 1021.6 |
| 20260502120514 | 52 | 59 | 2.0 | 7.0 | 0.00 | 0.00 | 0.00 | 51 | 1021.6 |
| 20260502115515 | 52 | 84 | 1.0 | 3.0 | 0.00 | 0.00 | 0.00 | 51 | 1022.0 |
| 20260502115015 | 52 | 206 | 0.0 | 1.0 | 0.00 | 0.00 | 0.00 | 50 | 1022.1 |
| 20260502114544 | 52 | 206 | 0.0 | 3.0 | 0.00 | 0.00 | 0.00 | 50 | 1022.1 |
| 20260502114016 | 52 | 206 | 0.0 | 4.0 | 0.00 | 0.00 | 0.00 | 51 | 1022.2 |
| 20260502113516 | 52 | 236 | 2.0 | 4.0 | 0.00 | 0.00 | 0.00 | 51 | 1022.2 |
| 20260502113043 | 52 | 244 | 3.0 | 4.0 | 0.00 | 0.00 | 0.00 | 51 | 1022.3 |
| 20260502112519 | 52 | 242 | 2.0 | 4.0 | 0.00 | 0.00 | 0.00 | 50 | 1022.2 |
| 20260502112019 | 53 | 250 | 2.0 | 3.0 | 0.00 | 0.00 | 0.00 | 50 | 1022.1 |
| 20260502111542 | 53 | 306 | 1.0 | 2.0 | 0.00 | 0.00 | 0.00 | 49 | 1022.1 |
| 20260502111020 | 53 | 306 | 0.0 | 2.0 | 0.00 | 0.00 | 0.00 | 49 | 1022.1 |
| 20260502110521 | 53 | 306 | 0.0 | 2.0 | 0.00 | 0.00 | 0.00 | 49 | 1021.9 |
| 20260502110039 | 53 | 306 | 0.0 | 3.0 | 0.00 | 0.00 | 0.00 | 49 | 1021.9 |
| 20260502105516 | 53 | 336 | 1.0 | 3.0 | 0.00 | 0.00 | 0.00 | 49 | 1021.9 |
| 20260502105015 | 53 | 326 | 0.0 | 2.0 | 0.00 | 0.00 | 0.00 | 49 | 1021.8 |
| 20260502104547 | 53 | 333 | 0.0 | 3.0 | 0.00 | 0.00 | 0.00 | 49 | 1021.8 |
| 20260502104016 | 53 | 334 | 0.0 | 3.0 | 0.00 | 0.00 | 0.00 | 49 | 1021.7 |
| 20260502103514 | 53 | 331 | 1.0 | 3.0 | 0.00 | 0.00 | 0.00 | 48 | 1021.8 |
| 20260502103046 | 52 | 300 | 0.0 | 3.0 | 0.00 | 0.00 | 0.00 | 49 | 1021.7 |
| 20260502102517 | 52 | 275 | 1.0 | 3.0 | 0.00 | 0.00 | 0.00 | 50 | 1021.8 |
| 20260502102023 | 53 | 300 | 1.0 | 2.0 | 0.00 | 0.00 | 0.00 | 49 | 1021.8 |
| 20260502101827 | 53 | 323 | 1.0 | 3.0 | 0.00 | 0.00 | 0.00 | 49 | 1021.6 |
| 20260502101027 | 53 | 338 | 1.0 | 5.0 | 0.00 | 0.00 | 0.00 | 48 | 1021.6 |
| 20260502100512 | 53 | 333 | 2.0 | 5.0 | 0.00 | 0.00 | 0.00 | 48 | 1021.5 |
| 20260502091015 | 54 | 317 | 1.0 | 2.0 | 0.00 | 0.00 | 0.00 | 47 | 1021.7 |
| 20260502090516 | 54 | 313 | 0.0 | 3.0 | 0.00 | 0.00 | 0.00 | 47 | 1021.8 |
| 20260502071017 | 53 | 276 | 2.0 | 3.0 | 0.00 | 0.00 | 0.00 | 49 | 1021.6 |
| 20260502070517 | 53 | 276 | 1.0 | 3.0 | 0.00 | 0.00 | 0.00 | 49 | 1021.5 |
| 20260502070101 | 53 | 276 | 2.0 | 3.0 | 0.00 | 0.00 | 0.00 | 49 | 1021.5 |
| 20260502065515 | 53 | 276 | 2.0 | 3.0 | 0.00 | 0.00 | 0.00 | 49 | 1021.5 |
| 20260502065015 | 53 | 276 | 1.0 | 3.0 | 0.00 | 0.00 | 0.00 | 49 | 1021.6 |
| 20260502064551 | 53 | 276 | 1.0 | 3.0 | 0.00 | 0.00 | 0.00 | 49 | 1021.5 |
| 20260502064015 | 53 | 278 | 1.0 | 3.0 | 0.00 | 0.00 | 0.00 | 49 | 1021.6 |
| 20260502063518 | 53 | 278 | 1.0 | 3.0 | 0.00 | 0.00 | 0.00 | 49 | 1021.5 |
| 20260502063043 | 53 | 275 | 1.0 | 3.0 | 0.00 | 0.00 | 0.00 | 48 | 1021.4 |
| 20260502062518 | 53 | 273 | 1.0 | 3.0 | 0.00 | 0.00 | 0.00 | 49 | 1021.6 |
| 20260502062023 | 53 | 271 | 2.0 | 3.0 | 0.00 | 0.00 | 0.00 | 49 | 1021.5 |
| 20260502061545 | 53 | 276 | 2.0 | 3.0 | 0.00 | 0.00 | 0.00 | 48 | 1021.6 |
| 20260502061014 | 53 | 272 | 2.0 | 3.0 | 0.00 | 0.00 | 0.00 | 47 | 1021.6 |
| 20260502060517 | 54 | 275 | 1.0 | 3.0 | 0.00 | 0.00 | 0.00 | 46 | 1021.5 |
| 20260502060324 | 54 | 277 | 1.0 | 2.0 | 0.00 | 0.00 | 0.00 | 45 | 1021.5 |
| 20260502055518 | 53 | 277 | 1.0 | 2.0 | 0.00 | 0.00 | 0.00 | 45 | 1021.4 |
| 20260502055019 | 53 | 277 | 1.0 | 3.0 | 0.00 | 0.00 | 0.00 | 47 | 1021.5 |
| 20260502054605 | 53 | 277 | 1.0 | 3.0 | 0.00 | 0.00 | 0.00 | 48 | 1021.4 |
| 20260502054015 | 53 | 261 | 1.0 | 3.0 | 0.00 | 0.00 | 0.00 | 48 | 1021.6 |
| 20260502053516 | 53 | 265 | 2.0 | 3.0 | 0.00 | 0.00 | 0.00 | 48 | 1021.7 |
| 20260502053119 | 53 | 263 | 2.0 | 3.0 | 0.00 | 0.00 | 0.00 | 47 | 1021.6 |
| 20260502052516 | 53 | 264 | 1.0 | 3.0 | 0.00 | 0.00 | 0.00 | 47 | 1021.7 |
| 20260502052016 | 53 | 274 | 2.0 | 3.0 | 0.00 | 0.00 | 0.00 | 46 | 1021.7 |
| 20260502051604 | 54 | 277 | 2.0 | 3.0 | 0.00 | 0.00 | 0.00 | 45 | 1021.7 |
| 20260502051013 | 54 | 270 | 1.0 | 2.0 | 0.00 | 0.00 | 0.00 | 45 | 1021.6 |
| 20260502050627 | 54 | 270 | 1.0 | 2.0 | 0.00 | 0.00 | 0.00 | 45 | 1021.5 |
| 20260502050621 | 54 | 270 | 0.0 | 2.0 | 0.00 | 0.00 | 0.00 | 45 | 1021.5 |
| 20260502045626 | 53 | 270 | 0.0 | 2.0 | 0.00 | 0.00 | 0.00 | 45 | 1021.5 |
| 20260502045031 | 53 | 270 | 1.0 | 2.0 | 0.00 | 0.00 | 0.00 | 46 | 1021.6 |
| 20260502044554 | 53 | 270 | 0.0 | 2.0 | 0.00 | 0.00 | 0.00 | 46 | 1021.5 |
| 20260502044018 | 53 | 270 | 1.0 | 3.0 | 0.00 | 0.00 | 0.00 | 47 | 1021.6 |
| 20260502043529 | 53 | 267 | 1.0 | 3.0 | 0.00 | 0.00 | 0.00 | 47 | 1021.6 |
| 20260502043047 | 53 | 254 | 2.0 | 3.0 | 0.00 | 0.00 | 0.00 | 46 | 1021.6 |
| 20260502042516 | 54 | 233 | 1.0 | 3.0 | 0.00 | 0.00 | 0.00 | 46 | 1021.6 |
| 20260502042028 | 54 | 203 | 1.0 | 2.0 | 0.00 | 0.00 | 0.00 | 46 | 1021.6 |
| 20260502041621 | 53 | 182 | 0.0 | 2.0 | 0.00 | 0.00 | 0.00 | 46 | 1021.6 |
| 20260502041017 | 53 | 182 | 0.0 | 2.0 | 0.00 | 0.00 | 0.00 | 46 | 1021.4 |
| 20260502040516 | 53 | 151 | 0.0 | 1.0 | 0.00 | 0.00 | 0.00 | 46 | 1021.4 |
| 20260502040050 | 53 | 150 | 0.0 | 1.0 | 0.00 | 0.00 | 0.00 | 46 | 1021.4 |
| 20260502035516 | 53 | 150 | 0.0 | 1.0 | 0.00 | 0.00 | 0.00 | 46 | 1021.4 |
| 20260502035208 | 53 | 150 | 0.0 | 0.0 | 0.00 | 0.00 | 0.00 | 46 | 1021.3 |
| 20260502034553 | 53 | 148 | 0.0 | 0.0 | 0.00 | 0.00 | 0.00 | 46 | 1021.1 |
| 20260502034023 | 53 | 148 | 0.0 | 0.0 | 0.00 | 0.00 | 0.00 | 46 | 1021.1 |
| 20260502033520 | 53 | 148 | 0.0 | 0.0 | 0.00 | 0.00 | 0.00 | 46 | 1021.1 |
| 20260502033106 | 53 | 148 | 0.0 | 1.0 | 0.00 | 0.00 | 0.00 | 47 | 1021.2 |
| 20260502032525 | 53 | 148 | 0.0 | 1.0 | 0.00 | 0.00 | 0.00 | 47 | 1021.1 |
| 20260502032017 | 53 | 148 | 0.0 | 1.0 | 0.00 | 0.00 | 0.00 | 47 | 1021.1 |
| 20260502031549 | 53 | 148 | 0.0 | 0.0 | 0.00 | 0.00 | 0.00 | 47 | 1021.1 |
| 20260502031018 | 53 | 148 | 0.0 | 1.0 | 0.00 | 0.00 | 0.00 | 46 | 1020.9 |
| 20260502030523 | 53 | 148 | 0.0 | 1.0 | 0.00 | 0.00 | 0.00 | 47 | 1020.9 |
| 20260502025523 | 54 | 161 | 0.0 | 1.0 | 0.00 | 0.00 | 0.00 | 46 | 1020.9 |
| 20260502025021 | 54 | 161 | 0.0 | 2.0 | 0.00 | 0.00 | 0.00 | 46 | 1020.9 |
| 20260502024605 | 54 | 146 | 0.0 | 1.0 | 0.00 | 0.00 | 0.00 | 46 | 1020.9 |
| 20260502024021 | 55 | 148 | 0.0 | 2.0 | 0.00 | 0.00 | 0.00 | 46 | 1020.9 |
| 20260502023520 | 55 | 152 | 0.0 | 2.0 | 0.00 | 0.00 | 0.00 | 46 | 1021.0 |
| 20260502023059 | 55 | 148 | 0.0 | 2.0 | 0.00 | 0.00 | 0.00 | 46 | 1021.0 |
| 20260502022526 | 56 | 141 | 0.0 | 0.0 | 0.00 | 0.00 | 0.00 | 46 | 1020.9 |
| 20260502022024 | 56 | 141 | 0.0 | 0.0 | 0.00 | 0.00 | 0.00 | 47 | 1020.9 |
| 20260502021558 | 56 | 141 | 0.0 | 0.0 | 0.00 | 0.00 | 0.00 | 47 | 1020.9 |
| 20260502021024 | 56 | 141 | 0.0 | 0.0 | 0.00 | 0.00 | 0.00 | 46 | 1020.7 |
| 20260502020524 | 56 | 141 | 0.0 | 1.0 | 0.00 | 0.00 | 0.00 | 46 | 1020.6 |
| 20260502020113 | 56 | 141 | 0.0 | 2.0 | 0.00 | 0.00 | 0.00 | 46 | 1020.7 |
| 20260502015524 | 57 | 141 | 0.0 | 2.0 | 0.00 | 0.00 | 0.00 | 46 | 1020.8 |
| 20260502015026 | 57 | 133 | 0.0 | 2.0 | 0.00 | 0.00 | 0.00 | 45 | 1020.8 |
| 20260502014559 | 57 | 129 | 0.0 | 2.0 | 0.00 | 0.00 | 0.00 | 46 | 1020.8 |
| 20260502014016 | 56 | 128 | 0.0 | 3.0 | 0.00 | 0.00 | 0.00 | 46 | 1020.9 |
| 20260502013518 | 56 | 129 | 0.0 | 3.0 | 0.00 | 0.00 | 0.00 | 45 | 1021.0 |
| 20260502013111 | 56 | 152 | 1.0 | 5.0 | 0.00 | 0.00 | 0.00 | 45 | 1020.9 |
| 20260502012521 | 56 | 134 | 1.0 | 5.0 | 0.00 | 0.00 | 0.00 | 46 | 1020.8 |
| 20260502012017 | 56 | 138 | 1.0 | 3.0 | 0.00 | 0.00 | 0.00 | 45 | 1020.8 |
| 20260502011608 | 57 | 145 | 1.0 | 4.0 | 0.00 | 0.00 | 0.00 | 45 | 1020.8 |
| 20260502011022 | 57 | 159 | 1.0 | 4.0 | 0.00 | 0.00 | 0.00 | 45 | 1020.9 |
| 20260502010519 | 57 | 139 | 1.0 | 4.0 | 0.00 | 0.00 | 0.00 | 44 | 1021.0 |
| 20260502005516 | 57 | 137 | 1.0 | 7.0 | 0.00 | 0.00 | 0.00 | 44 | 1021.1 |
| 20260502005020 | 58 | 140 | 2.0 | 7.0 | 0.00 | 0.00 | 0.00 | 45 | 1021.1 |
| 20260502004609 | 58 | 109 | 0.0 | 8.0 | 0.00 | 0.00 | 0.00 | 44 | 1021.1 |
| 20260502004015 | 58 | 115 | 1.0 | 8.0 | 0.00 | 0.00 | 0.00 | 43 | 1021.2 |
| 20260502003520 | 58 | 78 | 2.0 | 6.0 | 0.00 | 0.00 | 0.00 | 43 | 1021.2 |
| 20260502003106 | 58 | 78 | 2.0 | 6.0 | 0.00 | 0.00 | 0.00 | 44 | 1021.3 |
| 20260502002519 | 58 | 74 | 2.0 | 8.0 | 0.00 | 0.00 | 0.00 | 44 | 1021.1 |
| 20260502002018 | 58 | 79 | 3.0 | 7.0 | 0.00 | 0.00 | 0.00 | 43 | 1021.2 |
| 20260502001601 | 58 | 90 | 2.0 | 7.0 | 0.00 | 0.00 | 0.00 | 41 | 1021.1 |
| 20260502001019 | 59 | 107 | 3.0 | 9.0 | 0.00 | 0.00 | 0.00 | 41 | 1021.3 |
| 20260502000515 | 60 | 101 | 1.0 | 9.0 | 0.00 | 0.00 | 0.00 | 40 | 1021.4 |
| 20260502000049 | 61 | 101 | 1.0 | 6.0 | 0.00 | 0.00 | 0.00 | 39 | 1021.4 |
| 20260501235514 | 61 | 132 | 2.0 | 6.0 | 0.00 | 0.00 | 0.00 | 39 | 1021.3 |
| 20260501235014 | 61 | 144 | 2.0 | 5.0 | 0.00 | 0.00 | 0.00 | 39 | 1021.3 |
| 20260501234544 | 61 | 140 | 2.0 | 8.0 | 0.00 | 0.00 | 0.00 | 39 | 1021.3 |
| 20260501234015 | 60 | 136 | 2.0 | 7.0 | 0.00 | 0.00 | 0.00 | 40 | 1021.3 |
| 20260501233513 | 60 | 138 | 1.0 | 7.0 | 0.00 | 0.00 | 0.00 | 39 | 1021.6 |
| 20260501233057 | 59 | 97 | 2.0 | 7.0 | 0.00 | 0.00 | 0.00 | 38 | 1021.6 |
| 20260501232513 | 60 | 105 | 2.0 | 9.0 | 0.00 | 0.00 | 0.00 | 40 | 1021.5 |
| 20260501232013 | 60 | 93 | 3.0 | 9.0 | 0.00 | 0.00 | 0.00 | 39 | 1021.5 |
| 20260501231559 | 60 | 122 | 4.0 | 8.0 | 0.00 | 0.00 | 0.00 | 40 | 1021.7 |
| 20260501231014 | 60 | 126 | 3.0 | 7.0 | 0.00 | 0.00 | 0.00 | 39 | 1021.8 |
| 20260501230518 | 60 | 111 | 4.0 | 8.0 | 0.00 | 0.00 | 0.00 | 41 | 1021.6 |
| 20260501230315 | 59 | 100 | 2.0 | 7.0 | 0.00 | 0.00 | 0.00 | 40 | 1021.6 |
| 20260501225515 | 59 | 36 | 3.0 | 8.0 | 0.00 | 0.00 | 0.00 | 40 | 1021.6 |
| 20260501225021 | 58 | 64 | 2.0 | 8.0 | 0.00 | 0.00 | 0.00 | 43 | 1021.6 |
| 20260501224555 | 58 | 103 | 3.0 | 7.0 | 0.00 | 0.00 | 0.00 | 41 | 1021.8 |
| 20260501224014 | 58 | 87 | 4.0 | 8.0 | 0.00 | 0.00 | 0.00 | 41 | 1021.8 |
| 20260501223520 | 58 | 69 | 3.0 | 8.0 | 0.00 | 0.00 | 0.00 | 40 | 1021.9 |
| 20260501223142 | 59 | 63 | 3.0 | 8.0 | 0.00 | 0.00 | 0.00 | 42 | 1021.9 |
| 20260501222515 | 59 | 129 | 3.0 | 8.0 | 0.00 | 0.00 | 0.00 | 39 | 1022.1 |
| 20260501222015 | 60 | 78 | 3.0 | 8.0 | 0.00 | 0.00 | 0.00 | 39 | 1022.1 |
| 20260501221548 | 60 | 109 | 5.0 | 8.0 | 0.00 | 0.00 | 0.00 | 41 | 1022.2 |
| 20260501221017 | 59 | 113 | 4.0 | 9.0 | 0.00 | 0.00 | 0.00 | 38 | 1022.2 |
| 20260501220517 | 60 | 96 | 4.0 | 9.0 | 0.00 | 0.00 | 0.00 | 38 | 1022.3 |
| 20260501220050 | 61 | 90 | 4.0 | 8.0 | 0.00 | 0.00 | 0.00 | 38 | 1022.2 |
| 20260501215516 | 61 | 121 | 4.0 | 8.0 | 0.00 | 0.00 | 0.00 | 37 | 1022.3 |
| 20260501215019 | 59 | 100 | 3.0 | 9.0 | 0.00 | 0.00 | 0.00 | 42 | 1022.2 |
| 20260501214547 | 59 | 93 | 3.0 | 11.0 | 0.00 | 0.00 | 0.00 | 38 | 1022.4 |
| 20260501214019 | 61 | 95 | 3.0 | 8.0 | 0.00 | 0.00 | 0.00 | 39 | 1022.2 |
| 20260501213537 | 62 | 188 | 2.0 | 8.0 | 0.00 | 0.00 | 0.00 | 35 | 1022.2 |
| 20260501213055 | 62 | 140 | 3.0 | 8.0 | 0.00 | 0.00 | 0.00 | 36 | 1022.3 |
| 20260501212515 | 62 | 99 | 2.0 | 9.0 | 0.00 | 0.00 | 0.00 | 37 | 1022.4 |
| 20260501212015 | 62 | 153 | 1.0 | 10.0 | 0.00 | 0.00 | 0.00 | 35 | 1022.5 |
| 20260501211552 | 61 | 121 | 3.0 | 10.0 | 0.00 | 0.00 | 0.00 | 36 | 1022.6 |
| 20260501211016 | 62 | 182 | 4.0 | 11.0 | 0.00 | 0.00 | 0.00 | 38 | 1022.6 |
| 20260501210517 | 61 | 138 | 3.0 | 11.0 | 0.00 | 0.00 | 0.00 | 36 | 1022.6 |
| 20260501210051 | 61 | 94 | 2.0 | 10.0 | 0.00 | 0.00 | 0.00 | 40 | 1022.6 |
| 20260501205517 | 61 | 134 | 4.0 | 9.0 | 0.00 | 0.00 | 0.00 | 38 | 1022.6 |
| 20260501205019 | 61 | 72 | 3.0 | 10.0 | 0.00 | 0.00 | 0.00 | 39 | 1022.7 |
| 20260501204750 | 61 | 156 | 5.0 | 10.0 | 0.00 | 0.00 | 0.00 | 37 | 1022.7 |
| 20260501204019 | 61 | 132 | 4.0 | 8.0 | 0.00 | 0.00 | 0.00 | 40 | 1022.8 |
| 20260501203520 | 61 | 114 | 2.0 | 10.0 | 0.00 | 0.00 | 0.00 | 40 | 1022.7 |
| 20260501203051 | 61 | 98 | 4.0 | 10.0 | 0.00 | 0.00 | 0.00 | 40 | 1022.7 |
| 20260501202515 | 60 | 106 | 2.0 | 8.0 | 0.00 | 0.00 | 0.00 | 41 | 1022.7 |